Content
SEND FEEDBACK

Daily
Averages
Monthly
Summary
United States of America

HIGHTSTOWN, NEW JERSEY


Home > North America > United States > New Jersey
Elevation: 10 feet     Latitude: 40 16N     Longitude: 074 34W

WEATHER
 
SELECT A DAY
Number of Records: 33,464;   Date Range: 9/1/12 - 7/23/14
 
SHARE

PRINT THIS DATA

[ ← Previous Day ]
WEATHER ALMANAC - FEBRUARY 13, 2013
[ Next Day → ]
[ °C ]   °F
Weather ElementAverageHighLow
Temperature34.7 °F44.6 °F (2:55 pm)23.9 °F (5:55 am)
Dewpoint29.7 °F32 °F (7:04 pm)20.5 °F (5:55 am)
Humidity84.1 %100 % (7:58 pm)48 % (1:55 pm)
Barometer29.72 in29.96 in (1:55 am)29.67 in (10:18 pm)
Wind Speed6.4 mph12.7 mph (4:02 pm)
Weather ElementAverage
Visibility6.1 mi
Wind DirectionSSE (159.4 °)

Weather ElementTotal
Precipitation0.12 in
Heating Degree Days30.8 (Base 65)
Averaged from 78 records on February 13, 2013
WEATHER CONDITIONS BREAKOUT
WIND DIRECTION BREAKOUT
WEATHER BY HOUR - FEBRUARY 13, 2013
[ °C ]   °F
Local TimeTemperatureDewpointHumidityBarometerVisibilityWind DirectionWind SpeedGust SpeedPrecipitationEventsConditions
1:55 AM32.9 °F21.6 °F63 %29.96 in10.0 miCalmClear
2:55 AM28.4 °F21.9 °F77 %29.94 in10.0 miCalmClear
3:55 AM26.2 °F21.6 °F82 %29.91 in10.0 miCalmClear
4:55 AM26.4 °F22.3 °F84 %29.92 in10.0 miCalmClear
5:55 AM23.9 °F20.5 °F87 %29.91 in10.0 miCalmClear
6:55 AM24.8 °F21.6 °F87 %29.91 in10.0 miCalmClear
7:55 AM27.5 °F24.3 °F88 %29.91 in10.0 miCalmScattered Clouds
8:55 AM34.2 °F25.5 °F71 %29.88 in10.0 miNE (50°)3.5 mphClear
9:55 AM37.4 °F25.2 °F61 %29.88 in10.0 miNE (50°)4.6 mphOvercast
10:55 AM40.3 °F24.3 °F53 %29.88 in10.0 miEast (80°)5.8 mphOvercast
11:55 AM41.0 °F24.8 °F53 %29.85 in10.0 miENE (60°)3.5 mphOvercast
12:55 PM42.3 °F25.2 °F51 %29.80 in10.0 miEast (80°)3.5 mphOvercast
1:55 PM44.1 °F25.5 °F48 %29.75 in10.0 miSE (130°)9.2 mphPartly Cloudy
2:55 PM44.6 °F26.6 °F49 %29.74 in10.0 miENE (60°)4.6 mphPartly Cloudy
3:55 PM43.7 °F28.0 °F54 %29.71 in10.0 miENE (60°)9.2 mphMostly Cloudy
3:56 PM44.6 °F28.4 °F53 %29.71 in10.0 miENE (70°)9.2 mphMostly Cloudy
4:02 PM42.8 °F28.4 °F57 %29.70 in10.0 miNE (40°)12.7 mphMostly Cloudy
4:15 PM42.8 °F28.4 °F57 %29.70 in10.0 miENE (70°)8.1 mphOvercast
4:52 PM41.0 °F28.4 °F61 %29.68 in10.0 miENE (70°)10.4 mphOvercast
4:55 PM41.4 °F28.2 °F60 %29.68 in10.0 miENE (60°)8.1 mphOvercast
5:02 PM41.0 °F28.4 °F61 %29.68 in10.0 miENE (60°)10.4 mphOvercast
5:10 PM41.0 °F28.4 °F61 %29.68 in10.0 miEast (80°)8.1 mphOvercast
5:23 PM41.0 °F28.4 °F61 %29.68 in10.0 miEast (90°)11.5 mphOvercast
5:40 PM39.2 °F28.4 °F65 %29.68 in10.0 miEast (80°)10.4 mphOvercast
5:53 PM39.2 °F28.4 °F65 %29.69 in10.0 miEast (90°)9.2 mphOvercast
5:55 PM39.2 °F29.1 °F67 %29.68 in10.0 miEast (80°)9.2 mph0.00 inOvercast
6:15 PM37.4 °F30.2 °F75 %29.69 in10.0 miEast (80°)8.1 mphOvercast
6:26 PM37.4 °F30.2 °F75 %29.68 in10.0 miENE (60°)6.9 mphOvercast
6:50 PM37.4 °F30.2 °F75 %29.68 in10.0 miNE (40°)6.9 mphOvercast
6:55 PM36.7 °F31.1 °F80 %29.68 in10.0 miNNE (20°)5.8 mph0.00 inOvercast
7:04 PM37.4 °F32.0 °F81 %29.69 in10.0 miNE (40°)4.6 mphOvercast
7:06 PM37.4 °F32.0 °F81 %29.69 in10.0 miNNE (30°)3.5 mphOvercast
7:08 PM35.6 °F32.0 °F87 %29.70 in10.0 miCalmOvercast
7:14 PM35.6 °F30.2 °F81 %29.70 in7.0 miVariable3.5 mphSnowLight Snow
7:16 PM35.6 °F30.2 °F81 %29.70 in6.0 miCalmSnowLight Snow
7:20 PM35.6 °F30.2 °F81 %29.70 in4.0 miNE (40°)4.6 mphSnowLight Snow
7:21 PM35.6 °F30.2 °F81 %29.70 in4.0 miNE (50°)4.6 mphSnowLight Snow
7:22 PM35.6 °F30.2 °F81 %29.70 in4.0 miNE (40°)4.6 mphSnowLight Snow
7:32 PM33.8 °F30.2 °F87 %29.70 in6.0 miNNE (20°)4.6 mphSnowLight Snow
7:40 PM33.8 °F32.0 °F93 %29.70 in5.0 miNNE (20°)3.5 mphSnowLight Snow
7:45 PM33.8 °F32.0 °F93 %29.70 in2.5 miNNE (20°)4.6 mphSnowLight Snow
7:47 PM33.8 °F32.0 °F93 %29.70 in2.0 miNorth (10°)4.6 mphSnowLight Snow
7:48 PM33.8 °F32.0 °F93 %29.70 in1.8 miNorth (10°)4.6 mphSnowLight Snow
7:49 PM33.8 °F32.0 °F93 %29.70 in1.8 miNorth (10°)4.6 mphSnowLight Snow
7:50 PM33.8 °F32.0 °F93 %29.70 in1.5 miNorth (10°)4.6 mphSnowLight Snow
7:55 PM32.9 °F31.1 °F93 %29.70 in1.5 miNNE (20°)5.8 mph0.03 inSnowLight Snow
7:58 PM32.0 °F32.0 °F100 %29.69 in1.8 miNNE (20°)5.8 mphSnowLight Snow
8:04 PM32.0 °F32.0 °F100 %29.70 in1.8 miNorth (10°)5.8 mphSnowLight Snow
8:17 PM32.0 °F32.0 °F100 %29.70 in1.5 miNorth (360°)5.8 mphSnowLight Snow
8:18 PM32.0 °F32.0 °F100 %29.70 in1.5 miNorth (360°)5.8 mphSnowLight Snow
8:24 PM32.0 °F32.0 °F100 %29.70 in1.8 miNorth (360°)6.9 mphSnowLight Snow
8:28 PM32.0 °F32.0 °F100 %29.70 in2.0 miNorth (350°)6.9 mphSnowLight Snow
8:54 PM32.0 °F32.0 °F100 %29.69 in1.8 miNorth (360°)6.9 mphSnowLight Snow
8:55 PM32.4 °F31.6 °F97 %29.69 in1.8 miNorth (350°)6.9 mph0.05 inSnowLight Snow
8:59 PM32.0 °F32.0 °F100 %29.69 in2.0 miNorth (350°)6.9 mphSnowLight Snow
9:06 PM32.0 °F32.0 °F100 %29.69 in2.5 miNorth (350°)8.1 mphSnowLight Snow
9:09 PM32.0 °F32.0 °F100 %29.69 in3.0 miNNW (340°)6.9 mphSnowLight Snow
9:33 PM32.0 °F32.0 °F100 %29.68 in4.0 miNorth (350°)6.9 mphSnowLight Snow
9:35 PM32.0 °F32.0 °F100 %29.68 in3.0 miNorth (350°)8.1 mphSnowLight Snow
9:37 PM32.0 °F32.0 °F100 %29.68 in3.0 miNorth (350°)8.1 mphSnowLight Snow
9:38 PM32.0 °F32.0 °F100 %29.68 in4.0 miNorth (350°)8.1 mphSnowLight Snow
9:39 PM32.0 °F32.0 °F100 %29.68 in4.0 miNorth (350°)9.2 mphSnowLight Snow
9:42 PM32.0 °F32.0 °F100 %29.68 in4.0 miNorth (350°)8.1 mphSnowLight Snow
9:53 PM32.0 °F32.0 °F100 %29.68 in3.0 miNorth (360°)8.1 mphSnowLight Snow
9:55 PM32.5 °F31.8 °F97 %29.68 in3.0 miNorth (360°)6.9 mph0.02 inSnowLight Snow
10:08 PM32.0 °F32.0 °F100 %29.68 in3.0 miNorth (360°)8.1 mphSnowLight Snow
10:18 PM32.0 °F32.0 °F100 %29.67 in3.0 miNorth (350°)8.1 mphSnowLight Snow
10:21 PM32.0 °F32.0 °F100 %29.68 in3.0 miNorth (350°)9.2 mphSnowLight Snow
10:22 PM32.0 °F32.0 °F100 %29.68 in3.0 miNorth (350°)9.2 mphSnowLight Snow
10:35 PM32.0 °F32.0 °F100 %29.67 in3.0 miNorth (350°)10.4 mphSnowLight Snow
10:43 PM32.0 °F32.0 °F100 %29.68 in3.0 miNorth (350°)10.4 mphSnowLight Snow
10:45 PM32.0 °F32.0 °F100 %29.68 in3.0 miNorth (350°)10.4 mphSnowLight Snow
10:50 PM32.0 °F32.0 °F100 %29.68 in3.0 miNorth (350°)9.2 mphSnowLight Snow
10:54 PM32.0 °F32.0 °F100 %29.68 in4.0 miNorth (350°)10.4 mphSnowLight Snow
10:55 PM32.5 °F31.8 °F97 %29.68 in4.0 miNorth (350°)10.4 mph0.02 inSnowLight Snow
11:07 PM32.0 °F32.0 °F100 %29.68 in4.0 miNorth (350°)9.2 mphSnowLight Snow
11:44 PM32.0 °F32.0 °F100 %29.70 in5.0 miNNW (330°)8.1 mphSnowLight Snow
11:55 PM32.7 °F32.0 °F97 %29.70 in5.0 miNNW (330°)8.1 mph0.00 inSnowLight Snow
Hourly data recorded from KWRI, located miles away from Hightstown, New Jersey







STORIES FROM OUR PARTNERS